Terminal Aerodrome Forecast
Issued by NWS Pocatello, ID

Home | Current Version | Previous Version | Text Only | Print | Product List | Glossary On
Versions: 1 2 3 4 5 6 7 8 9 10 11 12 13 14 15 16 17 18 19 20 21
000
FTUS45 KPIH 301100
TAFIDA
TAF
KIDA 301120Z 3012/0112 21011KT P6SM VCSH BKN010 OVC020
     FM301700 21015G25KT P6SM VCSH BKN020 BKN040
     FM302000 23022G32KT P6SM FEW025 BKN080
     FM010300 21015KT P6SM VCSH SCT030 OVC060
     FM010500 23010KT P6SM VCSH BKN030 OVC050=

USA.gov is the U.S. government's official web portal to all federal, state and local government web resources and services.